Location: Goettingen
(51.5300°N, 9.9433°E)
Time: 15:06:11
(UTC+02:00)

ISS - Pass Details

Date: 02 July 2022
Orbit: 414 x 420 km, 51.6° (Epoch: 03 July)

Event Time Altitude Azimuth Distance (km) Brightness Sun altitude
Exits shadow 04:08:29 - 231° (SW) 1,556 -1.5 -7.2°
Reaches altitude 10° 04:08:39 10° 230° (SW) 1,494 -1.6 -7.2°
Maximum altitude 04:11:52 45° 156° (SSE) 578 -3.2 -6.9°
Drops below altitude 10° 04:15:06 10° 82° (E) 1,503 -0.2 -6.6°
Sets 04:17:15 0° 76° (ENE) 2,370 1.0 -6.3°
